Location: *
(53.9002°N, 27.5624°E)
Time: 13:56:57
(UTC+00:00)

USA 215 - Pass Details

Date: 12 November 2019
Orbit: 1101 x 1107 km, 123.0° (Epoch: 02 December)

Event Time Altitude Azimuth Distance (km) Brightness Sun altitude
Exits shadow 16:34:15 23° 127° (SE) 2,142 4.4 -20.2°
Maximum altitude 16:38:34 74° 209° (SSW) 1,147 3.4 -20.8°
Drops below altitude 10° 16:45:08 10° 295° (WNW) 2,965 6.4 -21.8°
Sets 16:47:38 0° 297° (WNW) 3,925 7.2 -22.1°
